When you browse on this site, cookies collect data to enhance your experience and personalize the content and advertising you see.
Visit our Privacy Policy to learn more. By continuing to use the site, you agree to this use of cookies and data.
  • In Deutschland
  • Länderverzeichnis
  • Für 7 Tage
  • Wassertemperatur
  • Wetterkarte
  • Widgets
  • user-avatar
    Anmelden

    Stündliche Wetter La Massana

    Heute, 10 Dezember, Dienstag

    Zeit Temperatur Niederschläge Wind Luftdruck Luftfeuchtigkeit
    00:00 -7°C° 0.6 mm 4 m/S 611 mmHg 92%
    01:00 -7°C° 0.3 mm 4 m/S 611 mmHg 91%
    02:00 -7°C° 0.3 mm 4 m/S 611 mmHg 91%
    03:00 -7°C° 0.3 mm 4 m/S 611 mmHg 90%
    04:00 -7°C° 0 mm 4 m/S 611 mmHg 88%
    05:00 -8°C° 0 mm 4 m/S 611 mmHg 86%
    06:00 -8°C° 0 mm 4 m/S 611 mmHg 83%
    07:00 -6°C° 0 mm 3 m/S 611 mmHg 76%
    08:00 -5°C° 0 mm 3 m/S 612 mmHg 68%
    09:00 -4°C° 0 mm 3 m/S 612 mmHg 60%
    10:00 -1°C° 0 mm 3 m/S 613 mmHg 62%
    11:00 +2°C° 0 mm 2 m/S 613 mmHg 64%
    12:00 +3°C° 0 mm 2 m/S 614 mmHg 65%
    13:00 +3°C° 0 mm 2 m/S 613 mmHg 66%
    14:00 +2°C° 0 mm 2 m/S 612 mmHg 67%
    15:00 +3°C° 0 mm 1 m/S 612 mmHg 68%
    16:00 +1°C° 0 mm 2 m/S 611 mmHg 63%
    17:00 -2°C° 0 mm 2 m/S 610 mmHg 57%
    18:00 -3°C° 0 mm 2 m/S 610 mmHg 52%
    19:00 -3°C° 0 mm 2 m/S 610 mmHg 49%
    20:00 -3°C° 0 mm 2 m/S 610 mmHg 47%
    21:00 -2°C° 0 mm 2 m/S 610 mmHg 45%
    22:00 -2°C° 0 mm 2 m/S 609 mmHg 45%
    23:00 0°C° 0 mm 1 m/S 609 mmHg 45%

    Morgen, 11 Dezember, Mittwoch

    Zeit Temperatur Niederschläge Wind Luftdruck Luftfeuchtigkeit
    00:00 0°C° 0 mm 1 m/S 609 mmHg 45%
    01:00 0°C° 0 mm 1 m/S 609 mmHg 46%
    02:00 -2°C° 0 mm 2 m/S 608 mmHg 48%
    03:00 -2°C° 0 mm 2 m/S 608 mmHg 50%
    04:00 -2°C° 0 mm 2 m/S 608 mmHg 56%
    05:00 -2°C° 0 mm 2 m/S 608 mmHg 62%
    06:00 -2°C° 0 mm 2 m/S 608 mmHg 67%
    07:00 +1°C° 0 mm 1 m/S 608 mmHg 72%
    08:00 +1°C° 0 mm 1 m/S 609 mmHg 76%
    09:00 +2°C° 0 mm 1 m/S 609 mmHg 80%
    10:00 +2°C° 0.4 mm 1 m/S 609 mmHg 82%
    11:00 +2°C° 0.4 mm 1 m/S 609 mmHg 83%
    12:00 +2°C° 0.4 mm 1 m/S 609 mmHg 85%
    13:00 +1°C° 0.7 mm 2 m/S 608 mmHg 87%
    14:00 -1°C° 0.7 mm 2 m/S 608 mmHg 88%
    15:00 -1°C° 0.7 mm 2 m/S 607 mmHg 89%
    16:00 -3°C° 0.1 mm 2 m/S 607 mmHg 90%
    17:00 -4°C° 0.1 mm 2 m/S 606 mmHg 91%
    18:00 -5°C° 0.1 mm 2 m/S 606 mmHg 92%
    19:00 -6°C° 0.1 mm 2 m/S 606 mmHg 91%
    20:00 -6°C° 0.1 mm 2 m/S 606 mmHg 91%
    21:00 -6°C° 0.1 mm 2 m/S 606 mmHg 90%
    22:00 -6°C° 0.4 mm 2 m/S 606 mmHg 91%
    23:00 -6°C° 0.4 mm 2 m/S 606 mmHg 91%

    übermorgen, 12 Dezember, Donnerstag

    Zeit Temperatur Niederschläge Wind Luftdruck Luftfeuchtigkeit
    00:00 -6°C° 0.4 mm 2 m/S 606 mmHg 92%
    01:00 -7°C° 0.2 mm 2 m/S 605 mmHg 91%
    02:00 -7°C° 0.2 mm 2 m/S 605 mmHg 91%
    03:00 -7°C° 0.2 mm 2 m/S 604 mmHg 90%
    04:00 -7°C° 0.1 mm 2 m/S 604 mmHg 90%
    05:00 -7°C° 0.1 mm 2 m/S 605 mmHg 90%
    06:00 -7°C° 0.1 mm 2 m/S 605 mmHg 90%
    07:00 -4°C° 0.3 mm 1 m/S 605 mmHg 88%
    08:00 -3°C° 0.3 mm 1 m/S 606 mmHg 87%
    09:00 -2°C° 0.3 mm 1 m/S 606 mmHg 85%
    10:00 -1°C° 0.1 mm 1 m/S 606 mmHg 83%
    11:00 0°C° 0.1 mm 1 m/S 606 mmHg 81%
    12:00 +1°C° 0.1 mm 1 m/S 606 mmHg 79%
    13:00 +1°C° 0.1 mm 1 m/S 606 mmHg 80%
    14:00 0°C° 0.1 mm 1 m/S 605 mmHg 81%
    15:00 0°C° 0.1 mm 1 m/S 604 mmHg 83%
    16:00 -1°C° 0 mm 1 m/S 603 mmHg 86%
    17:00 -4°C° 0 mm 2 m/S 602 mmHg 88%
    18:00 -5°C° 0 mm 2 m/S 601 mmHg 91%
    19:00 -5°C° 0.8 mm 2 m/S 601 mmHg 92%
    20:00 -4°C° 0.8 mm 2 m/S 601 mmHg 94%
    21:00 -4°C° 0.8 mm 2 m/S 600 mmHg 95%
    22:00 -4°C° 1.6 mm 2 m/S 600 mmHg 96%
    23:00 -3°C° 1.6 mm 2 m/S 600 mmHg 96%

    13 Dezember, Freitag

    Zeit Temperatur Niederschläge Wind Luftdruck Luftfeuchtigkeit
    00:00 -3°C° 1.6 mm 2 m/S 600 mmHg 96%
    01:00 -2°C° 1.1 mm 2 m/S 599 mmHg 97%
    02:00 -2°C° 1.1 mm 2 m/S 599 mmHg 97%
    03:00 -1°C° 1.1 mm 2 m/S 599 mmHg 97%
    04:00 -1°C° 0.8 mm 2 m/S 598 mmHg 97%
    05:00 -1°C° 0.8 mm 2 m/S 598 mmHg 98%
    06:00 -1°C° 0.8 mm 2 m/S 598 mmHg 98%
    07:00 -1°C° 1.3 mm 2 m/S 598 mmHg 98%
    08:00 -1°C° 1.3 mm 2 m/S 598 mmHg 98%
    09:00 +1°C° 1.3 mm 2 m/S 598 mmHg 98%
    10:00 +1°C° 2.5 mm 2 m/S 599 mmHg 97%
    11:00 +1°C° 2.5 mm 2 m/S 599 mmHg 97%
    12:00 +1°C° 2.5 mm 2 m/S 599 mmHg 97%
    13:00 +1°C° 2.1 mm 2 m/S 600 mmHg 97%
    14:00 +1°C° 2.1 mm 2 m/S 600 mmHg 97%
    15:00 +1°C° 2.1 mm 2 m/S 600 mmHg 97%
    16:00 +1°C° 2.2 mm 2 m/S 600 mmHg 97%
    17:00 +1°C° 2.2 mm 2 m/S 600 mmHg 98%
    18:00 +1°C° 2.2 mm 2 m/S 601 mmHg 98%
    19:00 +1°C° 1.2 mm 2 m/S 601 mmHg 98%
    20:00 +1°C° 1.2 mm 2 m/S 602 mmHg 98%
    21:00 +1°C° 1.2 mm 2 m/S 602 mmHg 98%
    22:00 +1°C° 0.4 mm 2 m/S 602 mmHg 98%
    23:00 +1°C° 0.4 mm 2 m/S 602 mmHg 98%

    14 Dezember, Samstag

    Zeit Temperatur Niederschläge Wind Luftdruck Luftfeuchtigkeit
    00:00 +1°C° 0.4 mm 2 m/S 603 mmHg 97%
    01:00 +1°C° 0 mm 2 m/S 603 mmHg 97%
    02:00 +1°C° 0 mm 2 m/S 603 mmHg 97%
    03:00 +1°C° 0 mm 2 m/S 603 mmHg 97%
    04:00 +1°C° 0 mm 2 m/S 603 mmHg 96%
    05:00 +1°C° 0 mm 2 m/S 603 mmHg 95%
    06:00 +1°C° 0 mm 2 m/S 604 mmHg 95%
    07:00 +1°C° 0 mm 2 m/S 604 mmHg 94%
    08:00 +3°C° 0 mm 1 m/S 605 mmHg 93%
    09:00 +3°C° 0 mm 1 m/S 606 mmHg 93%
    10:00 +4°C° 0 mm 1 m/S 606 mmHg 92%
    11:00 +5°C° 0 mm 1 m/S 606 mmHg 91%
    12:00 +6°C° 0 mm 1 m/S 607 mmHg 90%
    13:00 +5°C° 0 mm 1 m/S 607 mmHg 91%
    14:00 +4°C° 0 mm 1 m/S 606 mmHg 93%
    15:00 +4°C° 0 mm 1 m/S 606 mmHg 94%
    16:00 +3°C° 0 mm 1 m/S 606 mmHg 91%
    17:00 +2°C° 0 mm 1 m/S 605 mmHg 88%
    18:00 +1°C° 0 mm 1 m/S 605 mmHg 85%
    19:00 +1°C° 0 mm 1 m/S 605 mmHg 87%
    20:00 +1°C° 0 mm 1 m/S 606 mmHg 89%
    21:00 +1°C° 0 mm 1 m/S 606 mmHg 91%
    22:00 +1°C° 0 mm 1 m/S 606 mmHg 92%
    23:00 -1°C° 0 mm 2 m/S 606 mmHg 94%

    15 Dezember, Sonntag

    Zeit Temperatur Niederschläge Wind Luftdruck Luftfeuchtigkeit
    00:00 -1°C° 0 mm 2 m/S 606 mmHg 95%
    01:00 -1°C° 0 mm 2 m/S 606 mmHg 94%
    02:00 -1°C° 0 mm 2 m/S 605 mmHg 93%
    03:00 -2°C° 0 mm 2 m/S 605 mmHg 92%
    04:00 -2°C° 0 mm 2 m/S 605 mmHg 89%
    05:00 -2°C° 0 mm 2 m/S 604 mmHg 85%
    06:00 -2°C° 0 mm 2 m/S 604 mmHg 81%
    07:00 -1°C° 0 mm 2 m/S 604 mmHg 79%
    08:00 -1°C° 0 mm 2 m/S 605 mmHg 77%
    09:00 +1°C° 0 mm 2 m/S 605 mmHg 75%
    10:00 +2°C° 0 mm 2 m/S 606 mmHg 76%
    11:00 +3°C° 0 mm 2 m/S 606 mmHg 77%
    12:00 +4°C° 0 mm 2 m/S 606 mmHg 78%
    13:00 +4°C° 0 mm 2 m/S 605 mmHg 78%
    14:00 +3°C° 0 mm 2 m/S 605 mmHg 78%
    15:00 +3°C° 0 mm 2 m/S 604 mmHg 78%
    16:00 +2°C° 0 mm 2 m/S 604 mmHg 76%
    17:00 -1°C° 0 mm 2 m/S 603 mmHg 74%
    18:00 -2°C° 0 mm 2 m/S 603 mmHg 72%
    19:00 -2°C° 0 mm 2 m/S 603 mmHg 72%
    20:00 -2°C° 0 mm 2 m/S 603 mmHg 71%
    21:00 -2°C° 0 mm 2 m/S 603 mmHg 70%
    22:00 -2°C° 0 mm 2 m/S 603 mmHg 72%
    23:00 -2°C° 0 mm 3 m/S 602 mmHg 73%
    Mehr zeigen